星链-34603 (STARLINK-34603)

导读

STARLINK-34891是美国于2025年8月28日发射的星链卫星,隶属于SpaceX打造的星链互联网星座项目。星链系统旨在通过近地轨道卫星群,为全球提供覆盖广泛、低延迟的高速互联网服务,该卫星入轨后将进一步扩充星链星座的服务容量,助力全球网络覆盖能力提升。

Basic Information
目录编号:
65373
目录名称:
STARLINK-34891
国际标识:
2025-190Y
轨道中心:
EARTH
卫星名称:
星链-34603
卫星全名:
星链-34603 (STARLINK-34603)
卫星状态:
在轨 (已飞行289 天)
发射日期:
2025-08-28 UTC
国别 :
美国 (US)
星等 :
--
Orbit Information
数据来源 国际轨道数据 AOE轨道数据
星历时间 2026-06-13T10:14:55+0800
15小时前
查看轨道信息
2026-06-11T01:00:00+0800
3天前
查看轨道信息
半长轴 6840.776km 6840.717km
偏心率 0.0001228 0.0001154
轨道倾角 53.159° 53.158°
近地点辐角 118.125° 59.348°
升交点赤经 84.197° 95.356°
平近点角 241.988° 77.176°
近地点 461.798km 461.79km
远地点 463.48km 463.37km
周期 93.846分钟 93.845分钟
每日圈数 15.344219 15.344415
Detailed Information
固有亮度:
5
最大亮度:
2.5
卫星平台:
Starlink V1.0
覆盖范围:
全球
运营商:
太空探索技术公司
运营商所在国:
美国
制造商(研发单位):
太空探索技术公司
制造商所在国:
美国
使用方式:
暂无
Satellite Introduction
Starlink 计划是 SpaceX 推出的全球卫星互联网项目,通过发射低轨道卫星,为全球尤其是偏远地区提供高速、低延迟的互联网服务。自 2019 年起,Starlink 已部署数千颗卫星,旨在缩小全球数字鸿沟,推动互联网普及。该项目还为军事、航空等行业提供通信支持,带来广泛经济效益。
2D Orbit Map
3D Orbit Map
Orbit Altitude Analysis Chart
Orbit Inclination Analysis Chart
Orbit Comprehensive Analysis Chart
View Comprehensive Chart